Miscellaneous Local Product
Issued by NWS North Platte, NE

Home | Current Version | Previous Version | Graphics & Text | Print | Product List | Glossary On
Versions: 1 2 3 4 5 6 7 8 9 10 11 12 13 14 15 16 17 18 19 20 21 22 23 24 25 26 27 28 29 30 31 32 33 34 35 36 37 38 39 40 41 42 43 44 45 46 47 48 49 50
000
AXUS43 KLBF 170910
MISLBF


WESTERN AND NORTH CENTRAL NEBRASKA HOURLY WEATHER ROUNDUP
NATIONAL WEATHER SERVICE NORTH PLATTE NE
400 AM CDT THU AUG 17 2017

NOTE: "FAIR" INDICATES FEW OR NO CLOUDS BELOW 12,000 FEET WITH NO
SIGNIFICANT WEATHER AND/OR OBSTRUCTIONS TO VISIBILITY.

NOTE: STATIONS NOT REPORTING VARIABLES SUCH AS SKY/WEATHER OR
PRESSURE ARE PROVIDED BY RAWS AND APRS NETWORKS AND ARE NOT UNDER
NATIONAL WEATHER SERVICE QUALITY CONTROL.

...OBSERVATIONS IN AND NEAR THE EASTERN PANHANDLE OF NEBRASKA...

CITY           SKY/WX    TMP DP  RH WIND       PRES   REMARKS
PINE RIDGE     CLEAR     50  49  96 CALM      30.00F
GORDON         FAIR      48  46  90 CALM      30.03R
CHADRON        CLEAR     51  48  89 CALM      30.00S
ALLIANCE       CLEAR     47  46  97 SW5       30.05S
SIDNEY         CLEAR     50  48  93 CALM      30.10S
CRESCENT LAKE    N/A     56  51  84 SW3         N/A
$$

...OBSERVATIONS IN NORTHERN NEBRASKA AND FAR SOUTHERN SOUTH DAKOTA...

CITY           SKY/WX    TMP DP  RH WIND       PRES   REMARKS
WINNER         FAIR      58  51  78 SW8       29.93S
VALENTINE      CLEAR     52  46  80 W6        29.98S
THEDFORD       CLEAR     53  51  94 W5        30.03R
AINSWORTH      CLEAR     52  50  93 W7        29.97S
O`NEILL        CLEAR     57  56  96 W8        29.91S
ORD            CLEAR     57  52  83 W6        29.93F
BROKEN BOW     CLEAR     52  50  93 N5        29.98F
VALENTINE NWR    N/A     51  48  91 CALM        N/A
HALSEY           N/A     53  51  93 CALM        N/A
BUTTE            N/A     56  53  91 W7          N/A
CHAMBERS         N/A     58  56  92 CALM        N/A
EWING            N/A     57  55  93 W3          N/A
$$

...OBSERVATIONS IN SOUTHWEST NEBRASKA AND FAR NORTHEAST COLORADO...

CITY           SKY/WX    TMP DP  RH WIND       PRES   REMARKS
HOLYOKE        FAIR      54  50  87 SW3       30.09S
IMPERIAL       CLEAR     54  51  90 CALM      30.07R
OGALLALA       CLEAR     52  51  96 W3        30.06S
NORTH PLATTE   CLEAR     52  51  97 NW5       30.04R
MCCOOK         CLEAR     59  58  96 W9        30.03R
LEXINGTON      CLEAR     55  53  94 NW7       30.00S
STAPLETON        N/A     53  50  90 CALM        N/A
GOTHENBURG       N/A     56  51  85 W3          N/A
CALLAWAY         N/A     52  50  92 S3          N/A
$$

...OBSERVATIONS IN CENTRAL LINCOLN COUNTY AREA...

CITY           SKY/WX    TMP DP  RH WIND       PRES   REMARKS
N.P. AIRPORT   CLEAR     52  51  97 NW5       30.04R
N.P. SOUTHEAST   N/A     56  53  91 CALM        N/A
N.P. HILLCREST   N/A     55  53  93 NW3         N/A
$$

...SOME OBSERVATIONS FROM AROUND THE REGION...

CITY           SKY/WX    TMP DP  RH WIND       PRES   REMARKS
DENVER         PTCLDY    57  49  74 S12       30.16F
LIMON          CLEAR     49  48  97 N6        30.19F
ASPEN          CLOUDY    49  36  61 SW6       30.32S
LARAMIE        CLEAR     45  39  79 S9        30.24S
CASPER         CLOUDY    58  42  55 SW8       30.08S
CHEYENNE       CLEAR     53  44  71 SW8       30.18S
SCOTTSBLUFF    CLEAR     54  49  83 E7        30.06S
GRAND ISLAND   CLEAR     59  58  96 W8        29.95R
OMAHA          MOCLDY    67  61  81 W7        29.83R
SIOUX FALLS    CLOUDY    66  66 100 NW15      29.76R
PIERRE         CLEAR     56  51  84 SW8       29.90S
RAPID CITY     CLEAR     55  49  80 CALM      29.96F
BISMARCK       CLOUDY    56  54  93 CALM      29.90F
KANSAS CITY    CLOUDY    67  66  97 W5        29.86R
HILL CITY      CLEAR     59  58  96 SW5       30.03R
WICHITA        PTCLDY    68  65  90 NW8       29.96R
DODGE CITY     CLEAR     60  57  89 NW5       30.06R
OKLAHOMA CITY  CLOUDY    69  68  96 SW7       29.95F
DALLAS         MOCLDY    84  73  69 S17       29.90F THUNDER HX  90
AMARILLO       CLEAR     65  58  78 CALM      30.12R
$$




USA.gov is the U.S. government's official web portal to all federal, state and local government web resources and services.